Tracking 25620 objects as of 18-May-2022
HD Live streaming from Space Station
objects crossing your sky now

COSMOS 2251 DEB

Track COSMOS 2251 DEB now!
10-day predictions


NORAD ID: 40799
Int'l Code: 1993-036BWC
Perigee: 527.2 km
Apogee: 742.2 km
Inclination: 73.9 °
Period: 97.3 minutes
Semi major axis: 7005 km
RCS: Unknown
Launch date: June 16, 1993
Source: Commonwealth of Independent States (former USSR) (CIS)
Launch site: PLESETSK MISSILE AND SPACE COMPLEX (PKMTR)

Note: This is SATELLITE DEBRIS
aabbcc
Your satellite tracking list
Your tracking list is empty




NASA's NSSDC Master Catalog

Two Line Element Set (TLE):
1 40799U 93036BWC 22133.91764825  .00001701  00000-0  18585-3 0  9992
2 40799  73.9315 204.0719 0153421  32.4304 328.6185 14.80550330305194
Source of the keplerian elements: AFSPC